User: anonymous   Login
Location: Bothwell
(42.3833°S, 147.0000°E)
Time: 05:55:38
(UTC+11:00)
Language:

DOVE 4 - Orbit

View from above orbital plane
View from above orbital plane
View from above satellite
View from above satellite

Ground track
Ground track

The orbit data is extracted from the following two-line orbital elements,

1 39430U 13066Q   23029.40528149  .00002841  00000-0  50436-3 0  9990
2 39430  97.7959 288.5820 0148949  52.3485 309.1054 14.60917432489271
Epoch (UTC): 29 January 2023 09:43:36
Eccentricity: 0.0148949
inclination: 97.7959°
perigee height: 585 km
apogee height: 795 km
right ascension of ascending node: 288.5820°
argument of perigee: 52.3485°
revolutions per day: 14.60917432
mean anomaly at epoch: 309.1054°
orbit number at epoch: 48927

The dashed part of the orbit path shows where the satellite is in the earth's shadow,  

DLR